FW2321 Weather Reports


Display with metric or nautical units.
time (UTC)temp
F
wind
direction
speed
MPH
gust
MPH
rain 1hr
in
rain 24hr
in
rain mn
in
humidity
%
barometer
mb
20260831125036 71 171 5.0 10.0 0.00 0.17 0.08 92 1012.4
20260831124556 71 208 3.0 12.0 0.00 0.17 0.08 93 1012.6
20260831124036 71 151 5.0 12.0 0.00 0.17 0.08 93 1012.5
20260831123534 70 196 4.0 11.0 0.00 0.17 0.08 94 1012.7
20260831123054 70 186 1.0 10.0 0.00 0.17 0.08 94 1012.7
20260831122537 70 205 4.0 10.0 0.00 0.17 0.08 95 1012.7
20260831122036 70 178 2.0 9.0 0.00 0.17 0.08 96 1012.7
20260831121604 70 180 3.0 8.0 0.00 0.17 0.08 96 1012.6
20260831121035 69 0 3.0 8.0 0.00 0.17 0.08 97 1012.6
20260831120532 70 180 2.0 7.0 0.00 0.17 0.08 97 1012.5
20260831120057 69 176 2.0 7.0 0.00 0.17 0.08 98 1012.7
20260831115535 69 173 2.0 9.0 0.00 0.17 0.08 98 1012.5
20260831115035 69 168 3.0 12.0 0.00 0.17 0.08 98 1012.7
20260831114555 69 173 2.0 12.0 0.00 0.17 0.08 98 1012.6
20260831114033 69 169 4.0 8.0 0.00 0.17 0.08 98 1012.6
20260831113533 69 150 3.0 8.0 0.00 0.17 0.08 99 1012.7
20260831113052 69 170 3.0 7.0 0.01 0.17 0.08 99 1012.7
20260831112536 69 173 2.0 7.0 0.01 0.17 0.08 99 1012.7
20260831112036 69 163 1.0 5.0 0.01 0.17 0.08 99 1012.8
20260831111602 69 168 2.0 5.0 0.01 0.17 0.08 100 1012.7
20260831111035 69 0 2.0 5.0 0.02 0.17 0.08 100 1012.7
20260831110536 69 133 0.0 2.0 0.06 0.17 0.08 100 1012.7
20260831110100 69 107 0.0 3.0 0.06 0.17 0.08 100 1012.9
20260831105539 69 0 0.0 4.0 0.06 0.17 0.08 100 1012.9
20260831105037 69 104 0.0 4.0 0.06 0.17 0.08 100 1012.8
20260831104551 69 0 0.0 4.0 0.07 0.17 0.08 100 1012.8
20260831104034 69 0 0.0 4.0 0.08 0.17 0.08 100 1013.0
20260831103536 69 104 0.0 4.0 0.08 0.17 0.08 100 1013.0
20260831103058 69 0 0.0 4.0 0.07 0.16 0.07 100 1013.1
20260831102535 69 59 2.0 4.0 0.07 0.16 0.07 99 1013.1
20260831102037 69 0 0.0 3.0 0.07 0.16 0.07 99 1013.2
20260831101555 69 156 0.0 2.0 0.07 0.16 0.07 99 1013.0
20260831101037 69 0 0.0 0.0 0.05 0.14 0.05 99 1012.8
20260831100537 69 0 0.0 0.0 0.02 0.11 0.02 100 1013.1
20260831100058 69 0 0.0 6.0 0.02 0.11 0.02 100 1013.3
20260831095533 69 0 1.0 6.0 0.02 0.22 0.02 100 1013.2
20260831095036 69 0 0.0 3.0 0.02 0.22 0.02 100 1012.8
20260831094554 69 0 0.0 4.0 0.01 0.21 0.01 100 1013.1
20260831094033 69 0 1.0 4.0 0.00 0.20 0.00 100 1013.1
20260831093536 69 0 0.0 4.0 0.00 0.20 0.00 100 1013.0
20260831093052 69 0 0.0 0.0 0.00 0.20 0.00 100 1013.0
20260831092536 69 0 0.0 0.0 0.00 0.20 0.00 100 1012.9
20260831092038 69 0 0.0 0.0 0.00 0.20 0.00 100 1012.7
20260831091608 69 0 0.0 0.0 0.00 0.20 0.00 100 1012.7
20260831091036 69 0 0.0 0.0 0.00 0.20 0.00 100 1012.8
20260831090537 69 0 0.0 0.0 0.00 0.20 0.00 100 1012.8
20260831090054 69 0 0.0 0.0 0.00 0.20 0.00 100 1012.8
20260831085537 69 0 0.0 0.0 0.00 0.57 0.00 100 1013.0
20260831085040 69 0 0.0 0.0 0.00 0.57 0.00 100 1012.9
20260831084557 69 0 0.0 0.0 0.00 0.57 0.00 100 1012.9
20260831084035 69 0 0.0 0.0 0.00 0.57 0.00 100 1012.9
20260831083536 69 0 0.0 0.0 0.00 0.57 0.00 100 1012.9
20260831083057 69 0 0.0 0.0 0.00 0.57 0.00 100 1013.0
20260831082539 69 0 0.0 0.0 0.00 0.57 0.00 100 1012.8
20260831082037 69 0 0.0 3.0 0.00 0.57 0.00 100 1012.8
20260831081556 69 0 0.0 3.0 0.00 0.57 0.00 100 1012.9
20260831081036 68 130 0.0 4.0 0.00 0.57 0.00 100 1012.7
20260831080536 68 0 0.0 4.0 0.00 0.57 0.00 100 1012.8
20260831080051 68 0 0.0 0.0 0.00 0.57 0.00 100 1012.8
20260831075536 68 0 0.0 0.0 0.00 0.57 0.00 100 1012.9
20260831075036 67 0 0.0 0.0 0.00 0.57 0.00 100 1013.1
20260831074600 67 0 0.0 0.0 0.00 0.57 0.00 100 1013.1
20260831074036 67 0 0.0 0.0 0.00 0.57 0.00 100 1013.0
20260831073536 67 0 0.0 0.0 0.00 0.57 0.00 99 1013.2
20260831073111 67 0 0.0 0.0 0.00 0.57 0.00 99 1013.3
20260831072538 67 0 0.0 0.0 0.00 0.57 0.00 99 1013.4
20260831072036 67 0 0.0 0.0 0.00 0.57 0.00 99 1013.5
20260831071552 67 0 0.0 0.0 0.00 0.57 0.00 99 1013.6
20260831071036 67 0 0.0 0.0 0.00 0.57 0.00 99 1013.6
20260831070537 68 0 0.0 0.0 0.00 0.57 0.00 99 1013.7
20260831065537 68 0 0.0 0.0 0.00 0.57 0.00 99 1013.9
20260831065037 68 0 0.0 0.0 0.00 0.57 0.00 99 1014.0
20260831064555 68 0 0.0 0.0 0.00 0.57 0.00 98 1013.9
20260831064036 68 0 0.0 0.0 0.00 0.57 0.00 98 1014.0
20260831063537 68 0 0.0 0.0 0.00 0.57 0.00 98 1014.0
20260831063055 68 0 0.0 0.0 0.00 0.57 0.00 98 1014.1
20260831062538 68 0 0.0 0.0 0.00 0.57 0.00 98 1014.2
20260831062038 69 0 0.0 0.0 0.00 0.57 0.00 98 1014.2
20260831061554 69 0 0.0 0.0 0.00 0.57 0.00 98 1014.1
20260831061038 69 0 0.0 0.0 0.00 0.57 0.00 98 1014.2
20260831060536 69 0 0.0 0.0 0.00 0.57 0.00 98 1014.2
20260831055536 69 0 0.0 0.0 0.00 0.57 0.00 98 1014.2
20260831055033 69 0 0.0 0.0 0.00 0.57 0.00 98 1014.2
20260831054558 69 0 0.0 0.0 0.00 0.57 0.00 98 1014.1
20260831054033 69 0 0.0 0.0 0.00 0.57 0.00 97 1014.1
20260831053533 70 0 0.0 0.0 0.00 0.57 0.00 97 1014.1
20260831053052 70 0 0.0 0.0 0.00 0.57 0.00 97 1014.1
20260831052533 70 0 0.0 0.0 0.00 0.57 0.00 97 1014.0
20260831052032 70 0 0.0 0.0 0.00 0.57 0.00 97 1014.0
20260831051558 70 0 0.0 0.0 0.00 0.57 0.00 97 1013.8
20260831051034 70 0 0.0 0.0 0.00 0.57 0.00 96 1013.8
20260831050535 70 0 0.0 0.0 0.00 0.57 0.00 96 1013.9
20260831050058 71 0 0.0 0.0 0.00 0.57 0.00 96 1013.9
20260831045533 71 0 0.0 0.0 0.00 0.57 0.57 96 1013.9
20260831045036 71 0 0.0 0.0 0.00 0.57 0.57 96 1013.9
20260831044601 71 0 0.0 0.0 0.00 0.57 0.57 96 1013.8
20260831044033 71 0 0.0 0.0 0.00 0.57 0.57 96 1013.8
20260831043535 71 0 0.0 0.0 0.00 0.57 0.57 96 1013.7
20260831043100 71 0 0.0 0.0 0.00 0.57 0.57 95 1013.8
20260831042534 71 0 0.0 0.0 0.00 0.57 0.57 95 1013.7
20260831042036 71 0 0.0 3.0 0.00 0.57 0.57 95 1013.7
20260831041643 71 0 0.0 3.0 0.00 0.57 0.57 95 1013.6
20260831041039 71 0 0.0 4.0 0.00 0.57 0.57 95 1013.7
20260831040534 71 0 1.0 4.0 0.00 0.57 0.57 95 1013.7
20260831040058 71 182 0.0 3.0 0.00 0.57 0.57 95 1013.6
20260831035536 72 185 1.0 3.0 0.00 0.57 0.57 94 1013.8
20260831035038 72 0 0.0 4.0 0.00 0.57 0.57 94 1013.8
20260831034601 72 0 0.0 8.0 0.00 0.57 0.57 94 1013.8
20260831034033 72 0 2.0 9.0 0.00 0.57 0.57 94 1013.7
20260831033533 72 169 3.0 9.0 0.00 0.57 0.57 94 1013.7
20260831033052 72 169 4.0 9.0 0.00 0.57 0.57 94 1013.4
20260831032533 72 187 3.0 9.0 0.00 0.57 0.57 94 1013.6
20260831032036 72 164 4.0 9.0 0.00 0.57 0.57 94 1013.3
20260831031557 72 175 3.0 7.0 0.00 0.57 0.57 94 1013.5
20260831031036 72 242 3.0 7.0 0.00 0.57 0.57 94 1014.0
20260831030532 72 0 0.0 3.0 0.00 0.57 0.57 94 1013.9
20260831030101 72 0 0.0 3.0 0.00 0.57 0.57 94 1014.1
20260831025538 72 184 0.0 3.0 0.00 0.57 0.57 94 1014.0
20260831025037 72 0 0.0 4.0 0.00 0.57 0.57 94 1014.2
20260831024619 72 0 0.0 7.0 0.00 0.57 0.57 94 1014.3
20260831024037 72 183 3.0 10.0 0.00 0.57 0.57 94 1014.1
20260831023539 72 205 5.0 10.0 0.00 0.57 0.57 94 1013.9
20260831023059 72 189 5.0 9.0 0.00 0.57 0.57 95 1013.7
20260831022538 72 205 3.0 9.0 0.00 0.57 0.57 94 1014.0
20260831022038 72 211 2.0 10.0 0.00 0.57 0.57 94 1014.4
20260831021554 72 217 3.0 10.0 0.00 0.57 0.57 94 1014.1
20260831021035 72 193 5.0 10.0 0.00 0.57 0.57 94 1013.9
20260831020536 72 196 2.0 7.0 0.00 0.57 0.57 94 1013.7
20260831020055 72 0 0.0 5.0 0.00 0.57 0.57 94 1013.9
20260831015541 72 0 2.0 10.0 0.00 0.57 0.57 94 1013.9
20260831015037 72 203 1.0 10.0 0.00 0.57 0.57 94 1013.8
20260831014552 72 205 5.0 10.0 0.00 0.57 0.57 94 1014.1
20260831014037 71 213 5.0 10.0 0.00 0.57 0.57 95 1013.9
20260831013537 71 209 2.0 9.0 0.00 0.57 0.57 95 1014.1
20260831013110 71 205 4.0 9.0 0.00 0.57 0.57 95 1014.2
20260831012538 71 196 4.0 9.0 0.00 0.57 0.57 95 1014.2
20260831012034 71 212 2.0 10.0 0.00 0.57 0.57 95 1014.5
20260831011556 71 198 2.0 10.0 0.00 0.57 0.57 96 1014.4
20260831011034 71 195 3.0 10.0 0.00 0.57 0.57 96 1014.4
20260831010537 71 209 3.0 9.0 0.00 0.57 0.57 97 1014.4
20260831010122 71 230 2.0 9.0 0.00 0.57 0.57 97 1014.3
20260831005537 70 202 2.0 9.0 0.00 0.57 0.57 97 1014.0
20260831005040 70 209 2.0 7.0 0.00 0.57 0.57 97 1014.0
20260831004558 70 201 2.0 7.0 0.00 0.57 0.57 97 1013.9
20260831004038 71 208 3.0 7.0 0.00 0.57 0.57 97 1013.9
20260831003538 71 209 3.0 9.0 0.00 0.57 0.57 97 1013.8
20260831003056 71 169 3.0 9.0 0.00 0.57 0.57 97 1013.7
20260831002537 71 186 1.0 6.0 0.00 0.57 0.57 97 1013.7
20260831002037 71 180 2.0 6.0 0.00 0.57 0.57 97 1013.6
20260831001607 71 204 3.0 6.0 0.00 0.57 0.57 97 1013.5
20260831001040 71 207 3.0 6.0 0.00 0.57 0.57 97 1013.6
20260831000534 71 181 2.0 6.0 0.00 0.57 0.57 97 1013.5
20260831000113 71 180 2.0 6.0 0.00 0.57 0.57 97 1013.4
20260830235534 71 179 1.0 7.0 0.00 0.57 0.57 97 1013.3
20260830235033 71 173 1.0 7.0 0.00 0.57 0.57 97 1013.4
20260830234557 71 198 2.0 5.0 0.00 0.57 0.57 97 1013.4
20260830234033 71 205 3.0 5.0 0.00 0.57 0.57 96 1013.3
20260830233533 71 195 3.0 6.0 0.00 0.57 0.57 96 1013.3
20260830233055 71 212 3.0 8.0 0.00 0.57 0.57 96 1013.3
20260830232533 71 202 2.0 8.0 0.00 0.57 0.57 96 1013.3
20260830232032 71 215 2.0 8.0 0.00 0.57 0.57 96 1013.3
20260830231556 72 220 3.0 8.0 0.00 0.57 0.57 96 1013.2
20260830231035 72 209 3.0 9.0 0.00 0.57 0.57 96 1013.2
20260830230532 72 198 4.0 12.0 0.00 0.57 0.57 96 1013.2
20260830225533 72 208 6.0 11.0 0.00 0.57 0.57 96 1013.2
20260830225033 72 205 4.0 11.0 0.00 0.57 0.57 96 1013.3
20260830224553 72 205 6.0 11.0 0.00 0.57 0.57 96 1013.3
20260830224035 72 217 6.0 16.0 0.00 0.57 0.57 95 1013.3
20260830223534 72 198 6.0 16.0 0.00 0.57 0.57 96 1013.2
20260830223129 72 222 4.0 10.0 0.00 0.57 0.57 96 1013.2
20260830222532 72 213 3.0 8.0 0.00 0.57 0.57 96 1013.2
20260830222034 72 232 4.0 9.0 0.00 0.57 0.57 96 1013.3
20260830221604 72 198 3.0 9.0 0.00 0.57 0.57 96 1013.4
20260830221038 71 204 4.0 9.0 0.00 0.57 0.57 97 1013.4
20260830220532 71 221 4.0 7.0 0.01 0.57 0.57 97 1013.3
20260830220106 71 186 2.0 6.0 0.01 0.57 0.57 97 1013.4
20260830215536 71 198 2.0 6.0 0.01 0.57 0.57 98 1013.4
20260830215034 71 209 2.0 5.0 0.02 0.57 0.57 98 1013.4
20260830214553 71 216 2.0 5.0 0.02 0.57 0.57 98 1013.3
20260830214037 71 0 0.0 3.0 0.03 0.57 0.57 98 1013.4
20260830213533 71 0 0.0 3.0 0.04 0.57 0.57 98 1013.3
20260830213056 71 0 0.0 3.0 0.04 0.57 0.57 98 1013.3
20260830212534 71 0 0.0 5.0 0.04 0.57 0.57 98 1013.4
20260830212033 71 0 0.0 7.0 0.04 0.57 0.57 98 1013.2
20260830211555 71 285 3.0 7.0 0.05 0.57 0.57 98 1013.3
20260830211036 71 0 2.0 7.0 0.05 0.57 0.57 98 1013.0
20260830210533 70 186 3.0 7.0 0.04 0.56 0.56 98 1012.9
20260830210056 70 193 3.0 6.0 0.04 0.56 0.56 98 1013.1
20260830205533 70 221 2.0 4.0 0.04 0.57 0.56 98 1013.2
20260830205036 70 290 2.0 4.0 0.03 0.56 0.55 97 1013.3
20260830204600 70 0 0.0 2.0 0.02 0.55 0.54 97 1013.3
20260830204037 70 0 0.0 3.0 0.02 0.55 0.54 97 1013.5
20260830203537 71 319 0.0 3.0 0.01 0.54 0.52 97 1013.4
20260830203100 71 0 1.0 8.0 0.01 0.54 0.52 97 1013.5
20260830202539 71 321 2.0 8.0 0.02 0.54 0.52 97 1013.4
20260830202037 71 279 3.0 12.0 0.02 0.54 0.52 96 1013.5
20260830201554 71 206 4.0 12.0 0.01 0.52 0.52 96 1013.4
20260830201037 71 206 4.0 10.0 0.01 0.52 0.52 96 1013.5
20260830200538 71 210 4.0 12.0 0.01 0.52 0.52 96 1013.5
20260830200054 71 223 5.0 12.0 0.02 0.52 0.52 95 1013.8
20260830195540 71 273 4.0 10.0 0.02 0.52 0.52 95 1013.9
20260830195037 71 197 4.0 10.0 0.04 0.52 0.52 95 1013.7
20260830194608 72 218 3.0 10.0 0.04 0.52 0.52 94 1013.8
20260830194037 72 229 5.0 10.0 0.04 0.52 0.52 94 1014.0
20260830193536 72 198 3.0 16.0 0.04 0.52 0.52 93 1013.9
20260830193104 73 205 4.0 16.0 0.04 0.52 0.52 92 1014.0
20260830192537 73 221 4.0 13.0 0.03 0.52 0.51 92 1014.2
20260830192040 73 226 3.0 13.0 0.03 0.52 0.51 92 1014.2
20260830191553 73 267 4.0 9.0 0.03 0.52 0.51 91 1014.3
20260830191037 74 226 4.0 13.0 0.03 0.52 0.51 91 1014.1
20260830190537 74 209 4.0 14.0 0.03 0.52 0.51 90 1013.9
20260830190054 74 219 4.0 14.0 0.02 0.51 0.50 89 1014.0
20260830185537 76 213 3.0 16.0 0.02 0.51 0.50 86 1013.9
20260830185037 77 202 7.0 16.0 0.00 0.49 0.48 83 1013.9
20260830184604 78 205 5.0 15.0 0.00 0.49 0.48 81 1013.7
20260830184037 78 138 6.0 16.0 0.00 0.49 0.48 80 1013.6
20260830183541 79 221 6.0 19.0 0.00 0.49 0.48 80 1013.6
20260830183103 79 234 8.0 19.0 0.00 0.49 0.48 79 1013.4
20260830182537 79 279 6.0 18.0 0.00 0.49 0.48 79 1013.4
20260830182034 78 221 8.0 19.0 0.00 0.49 0.48 79 1013.4
20260830181554 79 215 6.0 19.0 0.00 0.49 0.48 79 1013.4
20260830181041 80 204 8.0 21.0 0.00 0.49 0.48 77 1013.2
20260830180537 80 209 10.0 22.0 0.00 0.49 0.48 76 1013.1
20260830180054 80 215 9.0 22.0 0.00 0.49 0.48 76 1013.0
20260830175537 81 180 7.0 19.0 0.00 0.49 0.48 76 1013.0
20260830175038 81 268 8.0 19.0 0.00 0.49 0.48 75 1012.9
20260830174601 81 207 6.0 19.0 0.00 0.49 0.48 74 1012.9
20260830174037 81 212 7.0 19.0 0.00 0.49 0.48 73 1012.7
20260830173536 81 178 8.0 18.0 0.00 0.49 0.48 73 1012.4
20260830173102 82 274 9.0 18.0 0.00 0.49 0.48 72 1012.6
20260830172537 82 222 6.0 16.0 0.00 0.49 0.48 72 1012.5
20260830172038 82 209 7.0 16.0 0.00 0.49 0.48 73 1012.5
20260830171621 83 204 8.0 16.0 0.00 0.49 0.48 71 1012.6
20260830171036 83 207 7.0 16.0 0.00 0.49 0.48 71 1012.7
20260830170536 83 279 6.0 13.0 0.00 0.49 0.48 73 1012.6
20260830165537 83 182 7.0 16.0 0.00 0.49 0.48 73 1012.6
20260830165037 83 202 6.0 20.0 0.00 0.49 0.48 72 1012.7
20260830164554 82 150 6.0 20.0 0.00 0.49 0.48 72 1012.5
20260830164037 83 212 7.0 20.0 0.00 0.49 0.48 73 1012.8
20260830163537 82 181 6.0 20.0 0.00 0.49 0.48 73 1012.9
20260830163059 82 233 6.0 17.0 0.00 0.49 0.48 73 1012.8
20260830162537 82 217 6.0 17.0 0.00 0.49 0.48 72 1012.8
20260830162039 82 192 7.0 16.0 0.00 0.49 0.48 74 1012.9
20260830161557 81 215 7.0 16.0 0.00 0.49 0.48 75 1012.7
20260830161035 81 219 6.0 13.0 0.00 0.49 0.48 75 1012.7
20260830160539 81 206 6.0 16.0 0.00 0.49 0.48 76 1012.7
20260830160056 81 219 8.0 18.0 0.00 0.49 0.48 76 1012.9
20260830155537 81 189 7.0 18.0 0.00 0.49 0.48 74 1013.0
20260830155037 81 207 5.0 19.0 0.00 0.49 0.48 75 1012.9
20260830154551 81 236 7.0 19.0 0.00 0.49 0.48 74 1013.0
20260830154035 81 200 3.0 10.0 0.00 0.49 0.48 78 1013.0
20260830153537 81 212 3.0 8.0 0.00 0.49 0.48 79 1013.0
20260830153100 80 262 1.0 8.0 0.00 0.49 0.48 80 1012.9
20260830152537 80 203 2.0 8.0 0.00 0.49 0.48 81 1012.8
20260830152038 80 229 2.0 11.0 0.00 0.49 0.48 80 1012.9
20260830151608 79 203 3.0 11.0 0.00 0.49 0.48 80 1012.9
20260830151037 79 176 3.0 10.0 0.00 0.49 0.48 80 1012.9
20260830150536 79 255 3.0 11.0 0.00 0.49 0.48 81 1012.8
20260830145534 78 169 6.0 11.0 0.00 0.49 0.48 80 1012.7
20260830145038 78 203 5.0 11.0 0.00 0.49 0.48 81 1012.6
20260830144603 77 213 3.0 16.0 0.00 0.49 0.48 83 1012.7
20260830144037 77 203 4.0 16.0 0.00 0.49 0.48 81 1012.6
20260830143536 77 213 6.0 15.0 0.00 0.49 0.48 81 1012.6
20260830143103 76 189 5.0 10.0 0.00 0.49 0.48 83 1012.4
20260830142539 76 207 4.0 16.0 0.00 0.49 0.48 84 1012.4
20260830142042 75 192 5.0 16.0 0.00 0.49 0.48 84 1012.5
20260830141555 75 214 5.0 11.0 0.00 0.49 0.48 86 1012.7
20260830141036 74 200 5.0 10.0 0.00 0.49 0.48 86 1012.7
20260830140536 74 221 4.0 10.0 0.00 0.49 0.48 86 1012.9
20260830140054 73 219 5.0 10.0 0.00 0.49 0.48 87 1012.8
20260830135540 73 209 5.0 11.0 0.00 0.49 0.48 87 1012.8
20260830135037 73 202 5.0 15.0 0.00 0.49 0.48 88 1012.7
20260830134558 72 228 6.0 15.0 0.00 0.49 0.48 89 1013.0
20260830134036 72 211 5.0 13.0 0.00 0.49 0.48 89 1012.8
20260830133536 71 198 5.0 12.0 0.00 0.49 0.48 90 1013.1
20260830133104 71 147 6.0 11.0 0.00 0.49 0.48 91 1013.1
20260830132537 71 223 6.0 10.0 0.00 0.49 0.48 92 1013.1
20260830132042 70 188 4.0 9.0 0.00 0.49 0.48 93 1013.2
20260830131555 70 217 3.0 9.0 0.00 0.49 0.48 94 1013.3
20260830131036 70 186 4.0 9.0 0.00 0.49 0.48 94 1013.4
20260830130541 70 211 3.0 7.0 0.00 0.49 0.48 95 1013.4
20260830130114 69 186 4.0 6.0 0.00 0.49 0.48 95 1013.5
20260830125536 69 199 3.0 7.0 0.00 0.49 0.48 95 1013.4